Volver al catálogo

STARLINK-4298

ActivoComunicacionesVLEO
NORAD 53177·PAYLOAD·🇺🇸 United States

Lanzado Jul 17, 2022 desde Cape Canaveral Space Force Station

Loading…

Próximos Pases (próximas 24 horas)

TLE

ActualizadoSource: CelesTrak SupGP

Época: Sep 14, 2026, 22:12 UTC

1 53177C 22083AX  26257.92548611 -.00035783  00000+0 -10240-2 0  2579
2 53177  53.1600 358.1496 0001135  83.3790 181.6632 15.35410809    10

Sigue STARLINK-4298 en tiempo real con AllMySat

Download on the App Store